Location: *
(36.7500°N, 6.9000°E)
Time: 04:51:55
(UTC+00:00)

Daily predictions for brighter satellites

Satellite Brightness Start Highest point End
(mag) Time Altitude Azimuth Time Altitude Azimuth Time Altitude Azimuth
SL-16 R/B 4.3 00:14:54 24° NE 00:14:54 24° NE 00:19:01 10° NNE
ATLAS 2AS CENTAUR R/B 4.2 00:10:25 10° NNW 00:17:09 32° NE 00:18:43 29° ENE
Cosmos 2297 Rocket 4.4 00:24:48 19° NE 00:24:48 19° NE 00:26:30 10° NE
Cosmos 2219 Rocket 4.5 00:18:04 10° NNW 00:19:33 19° NNW 00:19:33 19° NNW
USA 215 4.2 00:29:11 10° NE 00:33:42 43° NNE 00:33:42 43° NNE
Cosmos 2237 Rocket 4.0 00:43:56 10° N 00:46:42 27° N 00:46:42 27° N
SL-16 R/B 4.4 00:54:24 10° N 00:58:34 21° NE 01:00:14 18° E
ADEOS II 4.4 01:00:49 10° NE 01:03:14 17° ENE 01:03:14 17° ENE
USA 267 4.1 01:00:48 10° ESE 01:06:56 45° NE 01:13:04 10° NNW
CZ-2D R/B 3.8 01:02:14 10° NNE 01:05:06 31° NNE 01:05:06 31° NNE
NOSS 3-4 (A) 4.5 01:16:22 10° NNW 01:23:19 52° NE 01:30:51 10° SE
Cosmos 2227 Rocket 3.4 01:51:04 34° NNW 01:51:04 34° NNW 01:54:46 10° N
SL-16 R/B 3.6 02:00:01 32° NW 02:00:01 32° NW 02:03:25 10° NNW
Resurs 1-4 Rocket 3.5 01:59:33 10° N 02:02:28 27° NNW 02:02:28 27° NNW
Cosmos 2297 Rocket 3.6 02:06:37 27° NW 02:06:37 27° NW 02:10:22 10° N
ATLAS 2AS CENTAUR R/B 3.5 02:01:11 10° NW 02:06:01 39° WNW 02:06:01 39° WNW
Cosmos 2173 Rocket 4.4 02:08:49 10° NNW 02:13:42 48° NW 02:13:42 48° NW
Cosmos 2061 Rocket 3.9 02:09:26 10° N 02:15:49 75° W 02:15:49 75° W
Spot 4 Rocket 4.0 02:17:46 10° NNE 02:22:39 80° N 02:22:39 80° N
BREEZE-M DEB (TANK) 4.3 02:22:34 29° SE 02:23:13 30° ESE 02:31:00 10° ENE
ARIANE 5 R/B 2.7 02:19:13 10° N 02:23:54 65° NNW 02:23:54 65° NNW
Cosmos-2242 3.4 02:37:01 54° N 02:37:01 54° N 02:40:24 10° N
Cosmos 1331 Rocket 4.1 02:40:19 57° WNW 02:40:19 57° WNW 02:45:30 10° N
SeaSat 1 4.3 02:39:10 10° N 02:42:13 18° NW 02:42:13 18° NW
SL-16 R/B 2.5 02:37:30 10° NNW 02:41:59 47° WNW 02:41:59 47° WNW
Cosmos 2016 Rocket 4.2 02:38:22 10° NNW 02:43:56 45° W 02:43:56 45° W
ADEOS II 2.4 02:39:10 10° N 02:44:10 49° WNW 02:44:10 49° WNW
Cosmos 1110 Rocket 4.4 02:45:03 45° WNW 02:45:03 45° WNW 02:49:58 10° N
Meteor 2-1 Rocket 4.3 02:46:19 55° WSW 02:47:04 60° W 02:52:51 10° N
CZ-2D R/B 4.1 02:44:01 10° NNW 02:46:25 15° NW 02:46:25 15° NW
USA 267 3.3 02:43:31 10° SSE 02:49:49 50° SW 02:56:09 10° NW
Cosmos 2084 Rocket 4.1 02:50:27 43° SSE 02:51:14 49° ESE 02:55:34 10° NE
CZ-4B R/B 4.0 02:56:23 12° NNW 02:56:23 12° NNW 02:56:40 10° NNW
Cosmos 2233 Rocket 3.8 02:47:32 10° N 02:53:42 82° W 02:57:31 24° S
Cosmos 2151 2.8 02:53:15 10° N 02:57:28 89° WNW 02:58:11 61° S
CZ-2C R/B 3.1 02:53:36 10° N 02:57:12 53° NW 02:57:12 53° NW
Cosmos 2263 Rocket 2.1 03:02:55 36° SSW 03:05:22 87° ESE 03:11:06 10° NNE
In-Cosmos 22 Rocket 4.1 03:01:17 10° NNW 03:06:51 62° W 03:09:38 29° SSW
Cosmos 1408 Rocket 3.6 03:03:08 10° N 03:07:37 81° E 03:11:01 17° S
Cosmos 1455 2.0 03:10:47 61° SSW 03:11:24 84° W 03:15:09 10° N
NOSS 3-4 (A) 4.5 03:07:43 10° NW 03:14:05 33° WSW 03:20:52 10° S
NOSS 3-4 (C) 4.5 03:07:48 10° NW 03:14:12 33° WSW 03:21:00 10° S
Cosmos 371 Rocket 3.8 03:17:42 36° W 03:18:44 41° WNW 03:23:21 10° N
Cosmos 2285 Rocket 4.1 03:12:53 10° NNW 03:19:19 80° ENE 03:25:44 10° SSE
Cosmos 1238 Rocket 2.3 03:17:13 10° N 03:20:17 79° E 03:22:32 20° S
IDEFIX/ARIANE 42P 2.7 03:16:21 10° NNE 03:21:36 75° ESE 03:26:24 12° S
SL-8 R/B 3.8 03:21:16 36° WSW 03:23:09 67° NNW 03:27:58 10° NE
CZ-2C R/B 4.1 03:19:58 10° NE 03:23:57 29° E 03:27:58 10° SSE
Meteor 1-28 Rocket 3.3 03:25:25 41° SW 03:26:14 49° W 03:29:51 10° NNW
Cosmos 1825 2.8 03:25:12 10° N 03:28:57 57° E 03:32:40 10° SSE
PSLV R/B 3.5 03:30:33 10° N 03:34:52 67° WNW 03:37:50 20° SSW
Cosmos 1766 Rocket 4.4 03:31:12 10° NNW 03:35:07 30° W 03:36:05 28° WSW
Meteor 2-3 Rocket 4.4 03:30:13 10° N 03:35:43 57° E 03:41:10 10° SSE
IUS-1 SRM-2 4.0 03:37:02 17° SSW 03:37:02 17° SSW 03:38:33 10° SSE
Cosmos 1992 Rocket 4.0 03:32:30 15° SSW 03:36:55 88° ESE 03:42:10 10° NNE
Cosmos 1408 2.4 03:33:21 10° N 03:36:56 75° W 03:40:30 10° S
Meteor 2-10 Rocket 3.6 03:35:57 11° SSW 03:41:20 75° W 03:47:04 10° N
Timation 1 Rocket 4.3 03:37:15 16° SSW 03:42:07 79° WNW 03:48:09 10° NNE
IRIS 3.8 03:50:00 21° WNW 03:51:35 87° SSW 03:55:06 10° ESE
Cosmos 304 Rocket 4.2 03:51:47 17° SW 03:55:05 42° WNW 03:59:41 10° N
ATLAS 5 CENTAUR R/B 2.0 03:53:25 12° SSW 03:55:28 34° SE 03:57:27 10° NE
Cosmos 2221 2.7 03:52:09 11° SSW 03:56:13 51° W 04:00:31 10° N
PAYLOAD A 4.0 03:52:22 10° NNE 03:57:37 89° ESE 04:02:36 10° SSW
Lacrosse 5 rocket 2.5 03:54:12 10° SSW 03:57:49 38° SE 04:01:39 10° NE
Cosmos 1892 4.3 03:58:28 10° NW 04:00:51 16° W 04:01:26 16° W
Cosmos 1842 Rocket 4.5 03:58:47 15° SW 04:01:39 29° WNW 04:05:30 10° NNW
Cosmos 1869 3.7 04:01:59 10° S 04:05:52 66° E 04:09:47 10° NNE
Meteor 2-2 Rocket 4.2 04:00:16 10° S 04:05:53 85° W 04:11:36 10° N
GPS 2-05 Rocket1 3.8 04:08:09 12° SW 04:10:22 28° SSE 04:12:59 10° E
Cosmos 1486 Rocket 4.4 04:06:08 10° NW 04:10:57 39° WSW 04:15:47 10° S
Cosmos 1943 3.4 04:06:35 10° NNW 04:12:02 48° WSW 04:17:27 10° S
Cosmos 1500 Rocket 4.0 04:10:24 10° NNW 04:14:24 38° W 04:18:24 10° SSW
H-2A R/B 3.7 04:13:18 10° NNW 04:16:38 23° WNW 04:19:53 10° WSW
MSX 4.0 04:11:28 10° N 04:17:04 53° WNW 04:22:39 10° SSW
Cosmos 1603 4.5 04:13:37 10° NW 04:18:22 29° WSW 04:23:07 10° SSW
ISS -0.9 04:26:16 10° SSE 04:27:39 12° SE 04:29:03 10° ESE
Meteor PRIRODA 3.5 04:24:32 10° N 04:28:10 79° WNW 04:31:46 10° SSW
Cosmos 1844 Rocket 2.8 04:22:47 10° SSW 04:28:26 89° ESE 04:34:08 10° NNE
Sich 1 3.3 04:24:10 10° N 04:28:37 80° E 04:33:04 10° S
Meteor 1-31 Rocket 3.1 04:26:14 10° N 04:30:02 48° WNW 04:33:48 10° SSW
Cosmos 1503 Rocket 4.2 04:25:06 10° NNW 04:30:13 50° WSW 04:35:16 10° S
CZ-3 R/B 3.3 04:15:29 10° WSW 04:36:18 46° S 04:42:22 10° ESE
